Simultaneous Nadir Overpasses (SNOs) Predictions

Prediction of SNOs between GOES-16 and METOP-B Satellite Orbit:

Table of predicted SNOs for the next 14.0 days since TLE Epoch: 4/25/2020
Index Date Time (GOES-16) GOES-16 Lat,Lon METOP-B Lat,Lon Distance(km) Time Diff (sec)
1 04/26/2020 02:36:30 -0.04, -75.16 -0.26, -76.12 109.42 80
2 04/27/2020 02:13:10 -0.03, -75.16 0.84, -71.12 459.83 80
3 04/28/2020 14:32:03 0.03, -75.19 0.13, -75.69 57.33 80
4 05/01/2020 02:33:04 -0.02, -75.18 -0.02, -75.30 13.72 80
5 05/03/2020 14:31:16 0.02, -75.22 -0.06, -74.86 40.22 80
6 05/05/2020 02:50:18 -0.02, -75.21 -0.94, -79.47 484.12 80
7 05/06/2020 02:26:58 -0.02, -75.23 0.17, -74.47 86.24 80
8 05/07/2020 14:45:49 0.01, -75.27 0.86, -79.03 429.19 80
9 05/08/2020 14:27:50 0.01, -75.28 -0.25, -74.04 141.41 80




NCC Satellite Simultaneous Nadir Overpasses (SNOs) Prediction Service
